CZ-6A DEB, 61839

Orbit data source: Space-Track

CZ-6A DEB, 61839 is space debris in LEO originally from a launch on Tue, 06 Aug 2024 UTC launched from the Taiyaun Space Center, China (TSC). Debris objects in space refer to the collection of defunct objects orbiting the Earth. Examples of debris include non-operational satellites, rocket bodies, and fragments generated from explosions, collisions, or faulty payload assembly.

Loading next visibility...
Identifier
61839, 2024-140ADF
Orbit
LEO
Country
Flag of CNCN / PRC
Related business
Manufacturer
SAST
Mission
Spacecraft
Bus & Motor
Unknown
Mass
Unknown
Launch date (UTC)
2024-08-06 (1 year ago)
Launch vehicle
Unknown
Launch site
Taiyaun Space Center, China (TSC)
Object type
Payload
Rocket body
Debris
Shape & HBR
Unknown shape, 0.1 m
Radar Cross Section
Small (<0.1 m²)

Expand to show TLE details & history
Last TLE update: 8 hours ago

TLE from 8 hours ago
0 CZ-6A DEB
1 61839U 24140ADF 25351.26517343  .00005564  00000-0  19218-2 0  9998
2 61839  88.9296 290.1249 0021903 314.0831  45.8564 14.35572366 70374
Epoch: 2025-12-17T06:21Z
TLE epoch observation values (Epoch: 2025-12-17T06:21:50.984Z)
Latitude
-0.00003°
Longitude
108.52495°
Altitude
765.346 km
Speed
7.477 km/s
True Right ascension
19h 20m 29s
True Declination
0° 00' 00"
Sunlit
Object was in daylight at epoch
Visualization orbit readout
Latitude
Unknown
Longitude
Unknown
Altitude
Unknown
Speed
Unknown
Apparent Right ascension
Unknown
Apparent Declination
Unknown
Sunlit
N/A
Visualization observer readout
Local Sidereal Time
12:54:06
Azimuth
Unknown
Elevation
Unknown
Doppler factor
Unknown
Orbital elements
Apogee altitude
785.751 km
Perigee altitude
754.437 km
Semi-major axis
7,148.231 km
Eccentricity
0.00219
Inclination
88.9296°
RAAN
290.1249°
Arg. of periapsis
314.0831°
True anomaly
46.03685°
Mean anomaly
45.8564°
Eccentric anomaly
45.94659°
Mean motion
3.59125 °/min
Orbital period
100.24 mins
BSTAR
0.0019218
Loading maneuver chart data...
Computing Atmospheric mass density...

Documentation

Showing up to 5 results
|